GLOBALSTAR M084 [+]

Last updated on July 6, 2021, 3:36 p.m. UTC

1 38040U 11080A   21187.14066212 -.00000119  00000-0 -82658-4 0  9992
2 38040  52.0004 118.6000 0000688  51.6439  54.2117 12.62264920440837
UTC
Height (km)
Latitude
Longitude
Inclination
Orbital Period
UTC large
Height (km)
Speed (km/s)
/
Latitude / Longitude
Inclination (degrees)
Orbital Period (minutes)
Azimuth
Elevation
Range (km)
Doppler Factor
iOS Compass Heading
iOS Angle